Crookston, MN

7:53 AM CDT on April 24, 2017 (GMT -0500)
Crookston Municipal-Kirkwood

Weather History for KCKN - August, 2013

Change the Weather History Date:

Thursday, August 8, 2013

  Actual Average Record
Temperature  
Mean Temperature 58 °F -  
Max Temperature 71 °F 76 °F 91 °F (2010)
Min Temperature 44 °F 54 °F 44 °F (2013)
Degree Days  
Heating Degree Days 8    
Growing Degree Days 8 (Base 50)    
Moisture  
Dew Point 51 °F    
Average Humidity 75    
Maximum Humidity 100    
Minimum Humidity 53    
Precipitation  
Precipitation 0.00 in - - ()
Sea Level Pressure  
Sea Level Pressure 30.04 in    
Wind  
Wind Speed 3 mph (NW)    
Max Wind Speed 14 mph    
Max Gust Speed 20 mph    
Visibility 10 miles    
Events      
Averages and records for this station are not official NWS values.
T = Trace of Precipitation, MM = Missing Value Source: NWS Daily Summary

Daily Weather History Graph

Daily Weather History Graph

Search for Another Location

Airport or City:

Trip Planner

Search our weather history database for the weather conditions in past years. The results will help you decide how hot, cold, wet, or windy it might be!

Date:

Astronomy

Aug. 08, 2013 Rise Set
Actual Time 6:12 AM CDT 8:50 PM CDT
Civil Twilight 5:37 AM CDT 9:25 PM CDT
Nautical Twilight 4:53 AM CDT 10:09 PM CDT
Astronomical Twilight 4:00 AM CDT 11:01 PM CDT
Moon 8:13 AM CDT (8/8) 9:14 PM CDT (8/8)
Length of Visible Light 15h 47m
Length of Day
14h 37m
Waxing Crescent, 3% of the Moon is Illuminated
Aug 8
Waxing Crescent
Aug 14
First Quarter
Aug 20
Full
Aug 28
Last Quarter
Sep 5
New

Hourly Weather History & Observations

Time (CDT) Temp. Windchill Dew Point Humidity Pressure Visibility Wind Dir Wind Speed Gust Speed Precip Events Conditions
12:15 AM 57.2 °F - 55.4 °F 94% 30.04 in 10.0 mi Calm Calm - N/A   Overcast
12:34 AM 57.2 °F - 55.4 °F 94% 30.04 in 10.0 mi Calm Calm - N/A   Scattered Clouds
12:54 AM 57.2 °F - 55.4 °F 94% 30.04 in 10.0 mi Calm Calm - N/A   Mostly Cloudy
1:15 AM 55.4 °F - 53.6 °F 94% 30.05 in 10.0 mi ENE 3.5 mph - N/A   Scattered Clouds
1:34 AM 55.4 °F - 53.6 °F 94% 30.05 in 10.0 mi NE 3.5 mph - N/A   Clear
1:54 AM 55.4 °F - 53.6 °F 94% 30.05 in 10.0 mi Calm Calm - N/A   Clear
2:15 AM 53.6 °F - 51.8 °F 94% 30.05 in 10.0 mi Calm Calm - N/A   Clear
2:34 AM 53.6 °F - 51.8 °F 94% 30.05 in 10.0 mi Calm Calm - N/A   Clear
2:54 AM 51.8 °F - 48.2 °F 88% 30.06 in 10.0 mi Calm Calm - N/A   Clear
3:15 AM 51.8 °F - 50.0 °F 94% 30.05 in 10.0 mi Calm Calm - N/A   Clear
3:34 AM 50.0 °F - 48.2 °F 94% 30.04 in 10.0 mi Calm Calm - N/A   Clear
3:54 AM 51.8 °F - 48.2 °F 88% 30.04 in 10.0 mi ESE 3.5 mph - N/A   Clear
4:15 AM 48.2 °F - 46.4 °F 93% 30.04 in 7.0 mi SE 3.5 mph - N/A   Clear
4:34 AM 48.2 °F - 46.4 °F 93% 30.04 in 10.0 mi SE 4.6 mph - N/A   Clear
4:55 AM 46.4 °F 45.2 °F 46.4 °F 100% 30.03 in 10.0 mi ESE 3.5 mph - N/A   Clear
5:14 AM 48.2 °F - 46.4 °F 93% 30.04 in 10.0 mi NE 3.5 mph - N/A   Clear
5:34 AM 46.4 °F 45.2 °F 44.6 °F 93% 30.04 in 10.0 mi NE 3.5 mph - N/A   Clear
5:55 AM 46.4 °F - 44.6 °F 93% 30.04 in 10.0 mi Calm Calm - N/A   Clear
6:14 AM 44.6 °F - 44.6 °F 100% 30.04 in 10.0 mi Calm Calm - N/A   Clear
6:34 AM 46.4 °F - 44.6 °F 93% 30.03 in 10.0 mi Calm Calm - N/A   Clear
6:55 AM 46.4 °F - 46.4 °F 100% 30.04 in 10.0 mi Calm Calm - N/A   Clear
7:14 AM 48.2 °F - 46.4 °F 93% 30.04 in 10.0 mi Calm Calm - N/A   Clear
7:35 AM 48.2 °F - 46.4 °F 93% 30.04 in 10.0 mi Calm Calm - N/A   Clear
7:54 AM 51.8 °F - 51.8 °F 100% 30.04 in 10.0 mi Calm Calm - N/A   Clear
8:14 AM 55.4 °F - 51.8 °F 88% 30.05 in 10.0 mi Calm Calm - N/A   Clear
8:35 AM 55.4 °F - 51.8 °F 88% 30.05 in 10.0 mi Calm Calm - N/A   Clear
8:54 AM 57.2 °F - 53.6 °F 88% 30.05 in 10.0 mi Calm Calm - N/A   Clear
9:14 AM 60.8 °F - 51.8 °F 72% 30.05 in 10.0 mi Calm Calm - N/A   Clear
9:35 AM 59.0 °F - 51.8 °F 77% 30.06 in 10.0 mi Calm Calm - N/A   Scattered Clouds
9:54 AM 60.8 °F - 51.8 °F 72% 30.06 in 10.0 mi Calm Calm - N/A   Scattered Clouds
10:14 AM 60.8 °F - 51.8 °F 72% 30.06 in 10.0 mi Calm Calm - N/A   Mostly Cloudy
10:34 AM 62.6 °F - 50.0 °F 63% 30.06 in 10.0 mi WSW 3.5 mph - N/A   Overcast
10:54 AM 62.6 °F - 51.8 °F 68% 30.06 in 10.0 mi SSW 4.6 mph - N/A   Mostly Cloudy
11:15 AM 62.6 °F - 51.8 °F 68% 30.06 in 10.0 mi WSW 4.6 mph - N/A   Mostly Cloudy
11:34 AM 64.4 °F - 51.8 °F 64% 30.06 in 10.0 mi WSW 4.6 mph - N/A   Mostly Cloudy
11:54 AM 64.4 °F - 51.8 °F 64% 30.06 in 10.0 mi WNW 5.8 mph - N/A   Mostly Cloudy
12:15 PM 64.4 °F - 53.6 °F 68% 30.06 in 10.0 mi West 8.1 mph - N/A   Scattered Clouds
12:34 PM 64.4 °F - 53.6 °F 68% 30.06 in 10.0 mi WNW 9.2 mph - N/A   Mostly Cloudy
12:55 PM 64.4 °F - 53.6 °F 68% 30.05 in 10.0 mi West 5.8 mph - N/A   Mostly Cloudy
1:14 PM 64.4 °F - 53.6 °F 68% 30.05 in 10.0 mi West 4.6 mph - N/A   Mostly Cloudy
1:35 PM 66.2 °F - 51.8 °F 60% 30.04 in 10.0 mi WNW 8.1 mph - N/A   Scattered Clouds
1:54 PM 66.2 °F - 53.6 °F 64% 30.04 in 10.0 mi WNW 11.5 mph 16.1 mph N/A   Scattered Clouds
2:14 PM 66.2 °F - 53.6 °F 64% 30.04 in 10.0 mi West 8.1 mph - N/A   Scattered Clouds
2:35 PM 68.0 °F - 51.8 °F 56% 30.03 in 10.0 mi WNW 9.2 mph - N/A   Scattered Clouds
2:54 PM 69.8 °F - 53.6 °F 56% 30.02 in 10.0 mi West 10.4 mph 16.1 mph N/A   Scattered Clouds
3:14 PM 69.8 °F - 53.6 °F 56% 30.02 in 10.0 mi West 10.4 mph - N/A   Mostly Cloudy
3:34 PM 69.8 °F - 53.6 °F 56% 30.02 in 10.0 mi West 10.4 mph 17.3 mph N/A   Scattered Clouds
3:54 PM 71.6 °F - 53.6 °F 53% 30.01 in 10.0 mi NW 13.8 mph 17.3 mph N/A   Scattered Clouds
4:15 PM 71.6 °F - 53.6 °F 53% 30.00 in 10.0 mi WNW 13.8 mph 19.6 mph N/A   Scattered Clouds
4:34 PM 69.8 °F - 53.6 °F 56% 30.01 in 10.0 mi NNW 13.8 mph 18.4 mph N/A   Mostly Cloudy
4:54 PM 69.8 °F - 55.4 °F 60% 30.01 in 10.0 mi North 11.5 mph - N/A   Mostly Cloudy
5:14 PM 71.6 °F - 53.6 °F 53% 30.01 in 10.0 mi NNW 11.5 mph 17.3 mph N/A   Scattered Clouds
5:34 PM 69.8 °F - 53.6 °F 56% 30.01 in 10.0 mi North 10.4 mph - N/A   Scattered Clouds
5:55 PM 69.8 °F - 51.8 °F 53% 30.01 in 10.0 mi North 10.4 mph 17.3 mph N/A   Scattered Clouds
6:14 PM 69.8 °F - 51.8 °F 53% 30.01 in 10.0 mi North 8.1 mph 11.5 mph N/A   Scattered Clouds
6:34 PM 69.8 °F - 51.8 °F 53% 30.01 in 10.0 mi NNW 12.7 mph - N/A   Scattered Clouds
6:55 PM 69.8 °F - 51.8 °F 53% 30.00 in 10.0 mi North 8.1 mph - N/A   Clear
7:14 PM 68.0 °F - 51.8 °F 56% 30.01 in 10.0 mi North 9.2 mph - N/A   Clear
7:35 PM 66.2 °F - 51.8 °F 60% 30.01 in 10.0 mi North 6.9 mph - N/A   Clear
7:54 PM 66.2 °F - 51.8 °F 60% 30.01 in 10.0 mi North 5.8 mph - N/A   Clear
8:14 PM 64.4 °F - 51.8 °F 64% 30.01 in 10.0 mi Calm Calm - N/A   Clear
8:35 PM 62.6 °F - 51.8 °F 68% 30.01 in 10.0 mi North 3.5 mph - N/A   Clear
8:54 PM 60.8 °F - 51.8 °F 72% 30.02 in 10.0 mi Calm Calm - N/A   Clear
9:14 PM 60.8 °F - 50.0 °F 68% 30.02 in 10.0 mi NNE 3.5 mph - N/A   Clear
9:35 PM 60.8 °F - 48.2 °F 63% 30.02 in 10.0 mi North 3.5 mph - N/A   Clear
9:54 PM 59.0 °F - 48.2 °F 67% 30.03 in 10.0 mi Calm Calm - N/A   Clear
10:15 PM 55.4 °F - 48.2 °F 77% 30.03 in 10.0 mi Calm Calm - N/A   Clear
10:34 PM 53.6 °F - 48.2 °F 82% 30.03 in 10.0 mi Calm Calm - N/A   Mostly Cloudy
10:54 PM 55.4 °F - 48.2 °F 77% - 10.0 mi Calm Calm - N/A   Mostly Cloudy
11:15 PM 55.4 °F - 48.2 °F 77% 30.04 in 10.0 mi Calm Calm - N/A   Scattered Clouds
11:34 PM 51.8 °F - 48.2 °F 88% 30.04 in 10.0 mi Calm Calm - N/A   Scattered Clouds
11:54 PM 53.6 °F - 48.2 °F 82% 30.04 in 10.0 mi West 3.5 mph - N/A   Scattered Clouds